FW7092 Weather Reports


time (UTC)temp
C
wind
direction
speed
KPH
gust
KPH
rain 1hr
cm
rain 24hr
cm
rain mn
cm
humidity
%
barometer
mb
20260903043634 25 228 0.0 0.0 0.00 0.00 0.00 93 1015.6
20260903043133 25 225 0.0 0.0 0.00 0.00 0.00 92 1015.4
20260903042632 25 223 0.0 0.0 0.00 0.00 0.00 92 1015.6
20260903042127 25 220 1.6 1.6 0.00 0.00 0.00 92 1015.5
20260903041624 25 219 1.6 1.6 0.00 0.00 0.00 92 1015.4
20260903041120 25 225 1.6 1.6 0.00 0.00 0.00 92 1015.4
20260903040619 25 227 1.6 3.2 0.00 0.00 0.00 91 1015.1
20260903040115 25 208 3.2 4.8 0.00 0.00 0.00 91 1015.1
20260903035610 25 226 4.8 8.0 0.00 0.00 0.00 90 1014.8
20260903035106 25 214 8.0 9.7 0.00 0.00 0.00 90 1014.9
20260903034601 25 199 6.4 9.7 0.00 0.00 0.00 90 1014.9
20260903034056 26 226 6.4 8.0 0.00 0.00 0.00 90 1014.9
20260903033551 26 239 6.4 9.7 0.00 0.00 0.00 90 1014.9
20260903033046 26 224 6.4 8.0 0.00 0.00 0.00 89 1014.6
20260903032541 26 230 4.8 9.7 0.00 0.00 0.00 89 1014.9
20260903032037 26 229 8.0 11.3 0.00 0.00 0.00 89 1014.6
20260903031536 26 239 11.3 16.1 0.00 0.00 0.00 88 1014.7
20260903031031 26 216 9.7 12.9 0.00 0.00 0.00 88 1014.4
20260903030527 26 223 9.7 12.9 0.00 0.00 0.00 88 1014.6
20260903030023 26 219 11.3 12.9 0.00 0.00 0.00 88 1014.6
20260903025518 26 218 9.7 12.9 0.00 0.00 0.00 88 1014.5
20260903025014 26 236 9.7 11.3 0.00 0.00 0.00 88 1014.8
20260903024513 26 223 8.0 12.9 0.00 0.00 0.00 87 1015.1
20260903024008 26 219 9.7 14.5 0.00 0.00 0.00 87 1015.0
20260903023503 26 214 11.3 12.9 0.00 0.00 0.00 88 1015.1
20260903022958 26 219 8.0 12.9 0.00 0.00 0.00 88 1015.1
20260903022457 26 235 6.4 11.3 0.00 0.00 0.00 87 1015.5
20260903021955 27 239 9.7 11.3 0.00 0.00 0.00 87 1015.2
20260903021451 27 221 11.3 12.9 0.00 0.00 0.00 86 1015.4
20260903020946 27 225 11.3 14.5 0.00 0.00 0.00 86 1015.1
20260903020442 27 218 9.7 12.9 0.00 0.00 0.00 86 1015.1
20260903015937 27 221 9.7 14.5 0.00 0.00 0.00 86 1015.4
20260903015432 27 218 9.7 12.9 0.00 0.00 0.00 86 1015.2
20260903014927 27 226 9.7 11.3 0.00 0.00 0.00 86 1015.1
20260903014426 27 212 9.7 12.9 0.00 0.00 0.00 86 1015.4
20260903013922 27 220 9.7 11.3 0.00 0.00 0.00 86 1015.4
20260903013421 27 215 8.0 9.7 0.00 0.00 0.00 85 1015.1
20260903012915 27 221 9.7 11.3 0.00 0.00 0.00 86 1015.1
20260903012414 26 218 8.0 9.7 0.00 0.00 0.00 87 1015.1
20260903011913 26 214 8.0 9.7 0.00 0.00 0.00 87 1015.2
20260903011408 27 217 6.4 9.7 0.00 0.00 0.00 86 1015.2
20260903010903 27 214 8.0 9.7 0.00 0.00 0.00 86 1014.9
20260903010359 27 233 8.0 9.7 0.00 0.00 0.00 86 1015.2
20260903005856 27 212 8.0 9.7 0.00 0.00 0.00 86 1015.0
20260903005352 27 210 6.4 8.0 0.00 0.00 0.00 86 1015.0
20260903004848 27 232 6.4 8.0 0.00 0.00 0.00 86 1015.0
20260903004343 27 209 6.4 8.0 0.00 0.00 0.00 86 1014.8
20260903003839 27 219 6.4 8.0 0.00 0.00 0.00 85 1014.9
20260903003339 27 212 4.8 4.8 0.00 0.00 0.00 85 1015.0
20260903002838 27 221 4.8 8.0 0.00 0.00 0.00 84 1014.8
20260903002334 27 221 4.8 4.8 0.00 0.00 0.00 83 1014.9
20260903001828 28 219 4.8 4.8 0.00 0.00 0.00 81 1014.9
20260903001324 28 215 6.4 9.7 0.00 0.00 0.00 81 1015.0
20260903000823 28 217 8.0 9.7 0.00 0.00 0.00 80 1014.8
20260903000318 28 215 8.0 9.7 0.00 0.00 0.00 79 1015.0
20260902235816 29 216 8.0 9.7 0.00 0.00 0.00 78 1015.1
20260902235312 29 219 8.0 11.3 0.00 0.00 0.00 77 1015.0
20260902234812 30 227 4.8 11.3 0.00 0.00 0.00 76 1015.1
20260902234311 30 210 6.4 11.3 0.00 0.00 0.00 75 1015.1
20260902233810 30 223 6.4 9.7 0.00 0.00 0.00 75 1015.0
20260902233305 30 217 6.4 11.3 0.00 0.00 0.00 74 1015.0
20260902232804 30 237 11.3 14.5 0.00 0.00 0.00 73 1015.0
20260902232306 31 234 8.0 12.9 0.00 0.00 0.00 72 1015.0
20260902231803 31 217 11.3 11.3 0.00 0.00 0.00 71 1014.9
20260902231258 31 204 6.4 11.3 0.00 0.00 0.00 70 1015.0
20260902230753 31 222 8.0 14.5 0.00 0.00 0.00 70 1014.8
20260902230252 31 251 6.4 12.9 0.00 0.00 0.00 69 1015.1
20260902225747 32 236 9.7 11.3 0.00 0.00 0.00 69 1014.9
20260902225242 32 233 9.7 11.3 0.00 0.00 0.00 67 1014.8
20260902224740 32 204 12.9 17.7 0.00 0.00 0.00 68 1014.9
20260902224236 32 237 9.7 14.5 0.00 0.00 0.00 66 1015.0
20260902223732 32 222 9.7 14.5 0.00 0.00 0.00 66 1015.0
20260902223231 32 223 11.3 14.5 0.00 0.00 0.00 65 1015.0
20260902222725 32 212 11.3 16.1 0.00 0.00 0.00 65 1014.7
20260902222225 32 220 11.3 14.5 0.00 0.00 0.00 63 1014.9
20260902221720 32 232 8.0 11.3 0.00 0.00 0.00 64 1015.4
20260902221219 32 228 12.9 22.5 0.00 0.00 0.00 63 1014.9
20260902220714 32 215 14.5 16.1 0.00 0.00 0.00 62 1015.1
20260902220209 32 237 11.3 16.1 0.00 0.00 0.00 63 1015.2
20260902215704 33 234 9.7 12.9 0.00 0.00 0.00 61 1015.2
20260902215200 33 219 9.7 16.1 0.00 0.00 0.00 62 1015.4
20260902214655 33 215 14.5 17.7 0.00 0.00 0.00 61 1015.4
20260902214154 33 243 11.3 16.1 0.00 0.00 0.00 61 1015.4
20260902213650 33 220 9.7 14.5 0.00 0.00 0.00 60 1015.1
20260902213149 33 224 16.1 22.5 0.00 0.00 0.00 60 1015.2
20260902212644 33 243 12.9 24.1 0.00 0.00 0.00 60 1015.2
20260902212140 33 252 14.5 20.9 0.00 0.00 0.00 57 1015.4
20260902211637 33 246 17.7 25.7 0.00 0.00 0.00 58 1015.2
20260902211137 33 217 14.5 22.5 0.00 0.00 0.00 59 1015.1
20260902210636 33 248 11.3 14.5 0.00 0.00 0.00 61 1015.4
20260902210131 33 245 16.1 24.1 0.00 0.00 0.00 60 1015.2
20260902205630 33 228 14.5 22.5 0.00 0.00 0.00 62 1015.5
20260902205125 33 215 17.7 22.5 0.00 0.00 0.00 61 1015.6
20260902204620 33 226 12.9 20.9 0.00 0.00 0.00 58 1015.6
20260902204115 34 248 11.3 20.9 0.00 0.00 0.00 60 1015.5
20260902203611 34 232 11.3 22.5 0.00 0.00 0.00 59 1015.6
20260902203110 34 243 14.5 24.1 0.00 0.00 0.00 58 1015.4
20260902202606 33 232 12.9 20.9 0.00 0.00 0.00 59 1015.7
20260902202103 34 230 20.9 25.7 0.00 0.00 0.00 58 1015.8
20260902201557 34 224 9.7 17.7 0.00 0.00 0.00 59 1015.8
20260902201051 34 217 20.9 25.7 0.00 0.00 0.00 59 1015.9
20260902200546 34 214 17.7 20.9 0.00 0.00 0.00 60 1015.9
20260902200042 34 249 12.9 14.5 0.00 0.00 0.00 61 1016.0
20260902195538 34 226 11.3 14.5 0.00 0.00 0.00 60 1015.9
20260902195037 34 218 14.5 22.5 0.00 0.00 0.00 59 1016.0
20260902194536 34 263 8.0 17.7 0.00 0.00 0.00 61 1016.1
20260902194032 34 208 14.5 16.1 0.00 0.00 0.00 60 1016.2
20260902193528 34 239 11.3 14.5 0.00 0.00 0.00 61 1016.1
20260902193027 33 229 9.7 14.5 0.00 0.00 0.00 61 1016.3
20260902192525 34 215 11.3 14.5 0.00 0.00 0.00 61 1016.4
20260902192024 34 228 14.5 16.1 0.00 0.00 0.00 60 1016.4
20260902191520 33 242 9.7 16.1 0.00 0.00 0.00 63 1016.3
20260902191014 33 258 12.9 16.1 0.00 0.00 0.00 62 1016.6
20260902190510 33 240 8.0 12.9 0.00 0.00 0.00 63 1016.6
20260902190005 32 240 9.7 11.3 0.00 0.00 0.00 66 1016.6
20260902185501 33 224 9.7 20.9 0.00 0.00 0.00 64 1016.5
20260902184956 33 239 12.9 16.1 0.00 0.00 0.00 66 1016.7
20260902184452 33 255 11.3 14.5 0.00 0.00 0.00 65 1016.7
20260902183947 33 235 8.0 14.5 0.00 0.00 0.00 64 1016.7
20260902183443 33 241 16.1 22.5 0.00 0.00 0.00 62 1016.7
20260902182939 33 242 8.0 14.5 0.00 0.00 0.00 66 1016.7
20260902182435 32 229 9.7 16.1 0.00 0.00 0.00 65 1016.8
20260902181932 32 229 11.3 16.1 0.00 0.00 0.00 64 1016.7
20260902181427 32 236 11.3 12.9 0.00 0.00 0.00 68 1017.0
20260902180926 33 247 9.7 14.5 0.00 0.00 0.00 64 1016.9
20260902180422 32 222 6.4 11.3 0.00 0.00 0.00 67 1017.0
20260902175918 32 235 8.0 11.3 0.00 0.00 0.00 68 1017.2
20260902175412 32 242 11.3 12.9 0.00 0.00 0.00 66 1017.3
20260902174908 32 226 8.0 14.5 0.00 0.00 0.00 67 1017.2
20260902174405 32 218 8.0 12.9 0.00 0.00 0.00 66 1017.1
20260902173901 32 231 11.3 17.7 0.00 0.00 0.00 66 1017.3
20260902173400 33 238 8.0 14.5 0.00 0.00 0.00 65 1017.3
20260902172854 32 234 8.0 14.5 0.00 0.00 0.00 65 1017.4
20260902172348 32 247 8.0 12.9 0.00 0.00 0.00 65 1017.4
20260902171844 33 214 9.7 16.1 0.00 0.00 0.00 64 1017.5
20260902171339 32 250 9.7 11.3 0.00 0.00 0.00 67 1017.6
20260902170835 32 245 9.7 14.5 0.00 0.00 0.00 64 1017.5
20260902170330 32 245 11.3 16.1 0.00 0.00 0.00 67 1017.5
20260902165826 32 249 11.3 12.9 0.00 0.00 0.00 66 1017.7
20260902165325 32 233 11.3 12.9 0.00 0.00 0.00 68 1017.6
20260902164820 32 213 14.5 22.5 0.00 0.00 0.00 64 1017.7
20260902164315 32 231 8.0 11.3 0.00 0.00 0.00 68 1017.8
20260902163814 32 235 9.7 12.9 0.00 0.00 0.00 70 1017.7
20260902163309 32 220 8.0 16.1 0.00 0.00 0.00 69 1017.9
20260902162807 32 250 9.7 14.5 0.00 0.00 0.00 70 1018.0
20260902162306 31 256 8.0 11.3 0.00 0.00 0.00 70 1018.0
20260902161756 30 227 6.4 11.3 0.00 0.00 0.00 75 1018.1
20260902161252 30 215 8.0 11.3 0.00 0.00 0.00 73 1018.1
20260902160748 30 243 8.0 12.9 0.00 0.00 0.00 73 1017.9
20260902160243 31 208 8.0 9.7 0.00 0.00 0.00 73 1017.9
20260902155741 30 227 6.4 11.3 0.00 0.00 0.00 72 1018.1
20260902155240 31 230 8.0 16.1 0.00 0.00 0.00 72 1017.9
20260902154735 30 218 8.0 12.9 0.00 0.00 0.00 74 1017.9
20260902154230 30 209 11.3 14.5 0.00 0.00 0.00 72 1017.9
20260902153724 30 235 8.0 12.9 0.00 0.00 0.00 73 1017.9
20260902153224 30 239 6.4 11.3 0.00 0.00 0.00 74 1018.0
20260902152720 30 250 8.0 12.9 0.00 0.00 0.00 74 1018.0
20260902152215 30 244 9.7 12.9 0.00 0.00 0.00 75 1018.0
20260902151711 29 228 6.4 11.3 0.00 0.00 0.00 76 1017.9
20260902151206 30 226 9.7 11.3 0.00 0.00 0.00 75 1017.9
20260902150701 29 258 9.7 14.5 0.00 0.00 0.00 76 1018.0
20260902150157 30 251 8.0 9.7 0.00 0.00 0.00 75 1017.9
20260902145655 29 245 11.3 12.9 0.00 0.00 0.00 75 1017.9
20260902145155 28 243 8.0 11.3 0.00 0.00 0.00 77 1017.8
20260902144652 28 240 9.7 12.9 0.00 0.00 0.00 77 1017.9
20260902144147 28 247 8.0 12.9 0.00 0.00 0.00 79 1017.7
20260902143642 28 231 8.0 11.3 0.00 0.00 0.00 79 1017.7
20260902143137 28 239 6.4 11.3 0.00 0.00 0.00 78 1017.6
20260902142633 28 222 8.0 12.9 0.00 0.00 0.00 79 1017.6
20260902142129 28 258 11.3 14.5 0.00 0.00 0.00 81 1017.7
20260902141628 28 219 6.4 12.9 0.00 0.00 0.00 82 1017.6
20260902141124 28 250 8.0 11.3 0.00 0.00 0.00 81 1017.5
20260902140619 27 250 6.4 11.3 0.00 0.00 0.00 83 1017.7
20260902140114 27 251 9.7 12.9 0.00 0.00 0.00 83 1017.7
20260902135613 27 214 11.3 14.5 0.00 0.00 0.00 82 1017.5
20260902135108 27 237 4.8 9.7 0.00 0.00 0.00 84 1017.4
20260902134604 27 247 9.7 11.3 0.00 0.00 0.00 85 1017.5
20260902134104 27 236 8.0 12.9 0.00 0.00 0.00 85 1017.5
20260902133558 26 229 4.8 12.9 0.00 0.00 0.00 87 1017.6
20260902133053 26 218 4.8 11.3 0.00 0.00 0.00 88 1017.4
20260902132548 26 240 6.4 8.0 0.00 0.00 0.00 88 1017.4
20260902132044 26 226 6.4 11.3 0.00 0.00 0.00 89 1017.4
20260902131540 26 226 8.0 11.3 0.00 0.00 0.00 90 1017.5
20260902131040 25 193 9.7 11.3 0.00 0.00 0.00 90 1017.6
20260902130536 25 198 6.4 11.3 0.00 0.00 0.00 91 1017.7
20260902130031 25 237 8.0 11.3 0.00 0.00 0.00 92 1017.5
20260902125527 25 215 8.0 9.7 0.00 0.00 0.00 93 1017.6
20260902125022 25 236 8.0 11.3 0.00 0.00 0.00 94 1017.5
20260902124519 24 229 8.0 11.3 0.00 0.00 0.00 94 1017.4
20260902124019 24 212 11.3 12.9 0.00 0.00 0.00 94 1017.5
20260902123515 24 216 9.7 11.3 0.00 0.00 0.00 95 1017.5
20260902123014 23 245 6.4 9.7 0.00 0.00 0.00 96 1017.6
20260902122509 23 238 8.0 9.7 0.00 0.00 0.00 96 1017.5
20260902122004 23 231 6.4 9.7 0.00 0.00 0.00 96 1017.6
20260902121459 23 217 8.0 8.0 0.00 0.00 0.00 97 1017.5
20260902120954 23 235 4.8 4.8 0.00 0.00 0.00 97 1017.6
20260902120451 23 227 4.8 9.7 0.00 0.00 0.00 97 1017.6
20260902115950 23 234 4.8 9.7 0.00 0.00 0.00 98 1017.7
20260902115446 23 233 4.8 8.0 0.00 0.00 0.00 98 1017.5
20260902114942 23 214 8.0 8.0 0.00 0.00 0.00 98 1017.5
20260902114438 22 229 4.8 8.0 0.00 0.00 0.00 98 1017.4
20260902113933 22 229 4.8 8.0 0.00 0.00 0.00 98 1017.3
20260902113429 22 208 6.4 8.0 0.00 0.00 0.00 98 1017.4
20260902112928 22 229 4.8 8.0 0.00 0.00 0.00 98 1017.4
20260902112424 23 221 4.8 4.8 0.00 0.00 0.00 98 1017.3
20260902111920 22 231 3.2 4.8 0.00 0.00 0.00 98 1017.2
20260902111416 22 235 3.2 4.8 0.00 0.00 0.00 98 1017.3
20260902110912 22 238 3.2 4.8 0.00 0.00 0.00 98 1017.3
20260902110408 22 234 3.2 4.8 0.00 0.00 0.00 98 1017.3
20260902105908 22 229 3.2 8.0 0.00 0.00 0.00 98 1017.5
20260902105403 22 237 6.4 9.7 0.00 0.00 0.00 99 1017.4
20260902104857 22 223 6.4 9.7 0.00 0.00 0.00 99 1017.4
20260902104354 22 223 8.0 9.7 0.00 0.00 0.00 99 1017.3
20260902103853 22 217 6.4 8.0 0.00 0.00 0.00 98 1017.3
20260902103349 22 211 4.8 8.0 0.00 0.00 0.00 98 1017.2
20260902102843 22 229 4.8 8.0 0.00 0.00 0.00 98 1017.2
20260902102341 22 218 4.8 4.8 0.00 0.00 0.00 98 1017.1
20260902101836 22 221 4.8 8.0 0.00 0.00 0.00 98 1017.1
20260902101330 22 230 4.8 8.0 0.00 0.00 0.00 98 1017.1
20260902100825 22 218 6.4 8.0 0.00 0.00 0.00 98 1017.3
20260902100324 22 227 1.6 3.2 0.00 0.00 0.00 98 1017.4
20260902095819 22 230 3.2 3.2 0.00 0.00 0.00 98 1017.3
20260902095314 22 218 4.8 8.0 0.00 0.00 0.00 98 1017.4
20260902094808 22 220 4.8 4.8 0.00 0.00 0.00 98 1017.2
20260902094305 22 220 4.8 4.8 0.00 0.00 0.00 98 1017.3
20260902093804 22 225 3.2 3.2 0.00 0.00 0.00 98 1017.2
20260902093259 22 224 3.2 3.2 0.00 0.00 0.00 98 1017.1
20260902092758 22 241 3.2 3.2 0.00 0.00 0.00 98 1017.0
20260902092254 22 221 4.8 4.8 0.00 0.00 0.00 98 1017.0
20260902091753 23 219 3.2 4.8 0.00 0.00 0.00 98 1017.2
20260902091249 23 215 4.8 4.8 0.00 0.00 0.00 99 1017.2
20260902090746 23 224 3.2 3.2 0.00 0.00 0.00 99 1017.1
20260902090245 22 222 3.2 3.2 0.00 0.00 0.00 99 1017.1
20260902085744 22 215 1.6 3.2 0.00 0.00 0.00 98 1017.2
20260902085240 22 216 3.2 3.2 0.00 0.00 0.00 98 1017.3
20260902084736 23 219 4.8 4.8 0.00 0.00 0.00 98 1016.9
20260902084232 23 215 4.8 4.8 0.00 0.00 0.00 98 1017.1
20260902083731 23 221 4.8 4.8 0.00 0.00 0.00 98 1017.1
20260902083226 23 215 4.8 4.8 0.00 0.00 0.00 98 1017.0
20260902082721 23 213 3.2 3.2 0.00 0.00 0.00 98 1017.0
20260902082218 23 218 1.6 1.6 0.00 0.00 0.00 98 1017.2
20260902081714 23 218 3.2 3.2 0.00 0.00 0.00 98 1016.8
20260902081209 23 217 3.2 3.2 0.00 0.00 0.00 98 1016.9
20260902080704 23 220 0.0 0.0 0.00 0.00 0.00 98 1016.9
20260902080201 23 224 0.0 0.0 0.00 0.00 0.00 98 1016.8
20260902075700 23 234 0.0 0.0 0.00 0.00 0.00 98 1016.7
20260902075156 23 226 0.0 0.0 0.00 0.00 0.00 98 1016.8
20260902074656 23 222 3.2 3.2 0.00 0.00 0.00 98 1016.5
20260902074152 23 218 4.8 4.8 0.00 0.00 0.00 98 1016.6
20260902073647 23 214 4.8 8.0 0.00 0.00 0.00 98 1016.6
20260902073143 23 216 4.8 4.8 0.00 0.00 0.00 98 1016.5
20260902072639 23 223 3.2 4.8 0.00 0.00 0.00 98 1016.5
20260902072135 23 218 4.8 4.8 0.00 0.00 0.00 99 1016.5
20260902071631 23 228 4.8 4.8 0.00 0.00 0.00 99 1016.3
20260902071126 23 217 4.8 4.8 0.00 0.00 0.00 99 1016.5
20260902070622 23 216 3.2 4.8 0.00 0.00 0.00 99 1016.4
20260902070122 23 222 4.8 4.8 0.00 0.00 0.00 99 1016.5
20260902065620 23 220 4.8 4.8 0.00 0.00 0.00 99 1016.4
20260902065117 23 216 4.8 4.8 0.00 0.00 0.00 99 1016.5
20260902064612 23 216 3.2 4.8 0.00 0.00 0.00 99 1016.4
20260902064107 22 211 3.2 3.2 0.00 0.00 0.00 99 1016.6
20260902063602 22 211 3.2 3.2 0.00 0.00 0.00 99 1016.4
20260902063057 22 215 3.2 3.2 0.00 0.00 0.00 99 1016.6
20260902062555 22 216 3.2 3.2 0.00 0.00 0.00 99 1016.6
20260902062052 22 217 3.2 3.2 0.00 0.00 0.00 99 1016.8
20260902061551 22 218 1.6 3.2 0.00 0.00 0.00 99 1016.7
20260902061047 23 217 1.6 1.6 0.00 0.00 0.00 99 1016.8
20260902060543 23 218 1.6 3.2 0.00 0.00 0.00 99 1016.9
20260902060039 23 214 1.6 3.2 0.00 0.00 0.00 99 1016.8
20260902055535 23 215 1.6 3.2 0.00 0.00 0.00 99 1016.9
20260902055030 23 213 1.6 3.2 0.00 0.00 0.00 99 1016.9
20260902054525 22 218 1.6 3.2 0.00 0.00 0.00 99 1017.0
20260902054021 22 213 0.0 0.0 0.00 0.00 0.00 99 1016.9
20260902053516 21 223 0.0 0.0 0.00 0.00 0.00 99 1016.9
20260902053016 22 216 0.0 0.0 0.00 0.00 0.00 99 1016.9
20260902052509 22 214 0.0 0.0 0.00 0.00 0.00 99 1017.2
20260902052000 21 217 0.0 0.0 0.00 0.00 0.00 99 1017.1
20260902051459 21 226 0.0 0.0 0.00 0.00 0.00 99 1017.0
20260902050958 21 226 0.0 0.0 0.00 0.00 0.00 98 1017.0
20260902050453 21 226 1.6 1.6 0.00 0.00 0.00 98 1017.2
20260902045948 21 226 1.6 1.6 0.00 0.00 0.00 98 1017.0
20260902045443 21 226 1.6 1.6 0.00 0.00 0.00 98 1017.0
20260902044939 22 226 0.0 0.0 0.00 0.00 0.00 98 1017.0
20260902044429 22 226 0.0 0.0 0.00 0.00 0.00 98 1016.8